This is the latest recevied weather packets stored in our database for station/object K9VSK-9. If no packets are shown the sender has not sent any weather packets the latest 1 day(s).
| Time | Temp. | Humidity | Pressure | Rain* | Wind** | Luminosity | Snow |
|---|---|---|---|---|---|---|---|
| 1777989238 | 7.78° C | 84% | 1010.1 hPa | 0 mm | 1.34 m/s, 69° | - | - |
| 1777988938 | 7.78° C | 84% | 1010 hPa | 0 mm | 0.89 m/s, 330° | - | - |
| 1777988637 | 7.78° C | 84% | 1009.9 hPa | 0 mm | 0.45 m/s, 360° | - | - |
| 1777988337 | 7.78° C | 84% | 1009.9 hPa | 0 mm | 0.89 m/s, 46° | - | - |
| 1777988037 | 7.78° C | 85% | 1009.9 hPa | 0 mm | 0.45 m/s, 161° | - | - |
| 1777987736 | 7.78° C | 85% | 1009.9 hPa | 0 mm | 0.89 m/s, 348° | - | - |
| 1777987436 | 7.78° C | 85% | 1009.9 hPa | 0 mm | 0.45 m/s, 336° | - | - |
| 1777987136 | 7.78° C | 85% | 1009.8 hPa | 0 mm | 1.34 m/s, 321° | - | - |
| 1777986836 | 7.78° C | 84% | 1009.8 hPa | 0 mm | 1.79 m/s, 300° | - | - |
| 1777986535 | 7.78° C | 84% | 1009.9 hPa | 0 mm | 2.24 m/s, 342° | - | - |
| 1777986235 | 7.78° C | 84% | 1009.9 hPa | 0 mm | 0.89 m/s, 57° | - | - |
| 1777985935 | 7.78° C | 83% | 1010.1 hPa | 0 mm | 2.68 m/s, 360° | - | - |
| 1777985634 | 7.78° C | 83% | 1010.2 hPa | 0 mm | 1.79 m/s, 19° | - | - |
| 1777985334 | 8.33° C | 82% | 1010.2 hPa | 0 mm | 2.24 m/s, 355° | - | - |
| 1777985034 | 8.33° C | 80% | 1010.5 hPa | 0 mm | 3.58 m/s, 360° | - | - |
| 1777984734 | 8.33° C | 79% | 1010.5 hPa | 0 mm | 3.58 m/s, 11° | - | - |
| 1777984433 | 8.33° C | 77% | 1010.7 hPa | 0 mm | 4.02 m/s, 19° | - | - |
| 1777984133 | 8.89° C | 77% | 1010.8 hPa | 0 mm | 3.58 m/s, 10° | - | - |
| 1777983833 | 8.89° C | 77% | 1010.9 hPa | 0 mm | 1.79 m/s, 285° | - | - |
| 1777983532 | 8.89° C | 76% | 1011.1 hPa | 0 mm | 0.45 m/s, 348° | - | - |
| 1777983232 | 8.89° C | 78% | 1011.2 hPa | 0 mm | 1.34 m/s, 282° | - | - |
| 1777982932 | 8.89° C | 78% | 1011 hPa | 0 mm | 2.24 m/s, 165° | - | - |
| 1777982632 | 8.89° C | 77% | 1010.4 hPa | 0 mm | 2.68 m/s, 272° | - | - |
| 1777982331 | 8.89° C | 75% | 1009.8 hPa | 0 mm | 1.34 m/s, 110° | - | - |
| 1777982031 | 8.89° C | 76% | 1009.3 hPa | 0 mm | 3.58 m/s, 350° | - | - |
* Rain latest hour (hover to see other rain measurements)
** Current wind speed in m/s (hover to see current wind gust speed)